This is the latest recevied weather packets stored in our database for station/object NC4M. If no packets are shown the sender has not sent any weather packets the latest 1 day(s).
| Time | Temp. | Humidity | Pressure | Rain* | Wind** | Luminosity | Snow |
|---|---|---|---|---|---|---|---|
| 1778027533 | 6.67° C | 93% | 1011 hPa | 1.27 mm | 0 m/s | 3 W/m² | - |
| 1778027229 | 6.67° C | 93% | 1011.3 hPa | 0 mm | 0 m/s | 3 W/m² | - |
| 1778026926 | 6.67° C | 93% | 1011.2 hPa | 0 mm | 0 m/s | 4 W/m² | - |
| 1778026621 | 6.67° C | 93% | 1011 hPa | 0 mm | 0 m/s | 5 W/m² | - |
| 1778026319 | 6.67° C | 93% | 1011 hPa | 0 mm | 0 m/s | 7 W/m² | - |
| 1778026016 | 7.22° C | 93% | 1011.1 hPa | 0 mm | 1.79 m/s, 286° | 9 W/m² | - |
| 1778025714 | 7.22° C | 93% | 1010.9 hPa | 0 mm | 0 m/s | 10 W/m² | - |
| 1778025411 | 6.67° C | 93% | 1011.2 hPa | 1.78 mm | 0.45 m/s, 318° | 8 W/m² | - |
| 1778025109 | 7.22° C | 93% | 1011 hPa | 3.56 mm | 0 m/s | 13 W/m² | - |
| 1778024805 | 6.67° C | 92% | 1011.2 hPa | 3.05 mm | 0 m/s | 11 W/m² | - |
| 1778024502 | 7.22° C | 92% | 1011.2 hPa | 1.27 mm | 0 m/s | 10 W/m² | - |
| 1778024199 | 7.22° C | 93% | 1011.1 hPa | 0 mm | 0 m/s | 6 W/m² | - |
| 1778023897 | 7.22° C | 93% | 1011.1 hPa | 0 mm | 0 m/s | 13 W/m² | - |
| 1778023594 | 7.22° C | 93% | 1011.1 hPa | 1.78 mm | 0.89 m/s, 308° | 15 W/m² | - |
| 1778023292 | 7.22° C | 93% | 1010.9 hPa | 1.78 mm | 0.45 m/s, 75° | 9 W/m² | - |
| 1778022988 | 7.22° C | 93% | 1010.7 hPa | 0 mm | 0 m/s | 5 W/m² | - |
| 1778022687 | 7.22° C | 92% | 1010.6 hPa | 0 mm | 0 m/s | 13 W/m² | - |
| 1778022385 | 7.22° C | 92% | 1010.2 hPa | 1.27 mm | 0.45 m/s, 302° | 27 W/m² | - |
| 1778022080 | 7.22° C | 92% | 1010.4 hPa | 4.32 mm | 0.45 m/s, 354° | 28 W/m² | - |
| 1778021777 | 7.22° C | 92% | 1010.6 hPa | 4.83 mm | 0.45 m/s, 289° | 20 W/m² | - |
| 1778021473 | 7.22° C | 92% | 1010.3 hPa | 1.78 mm | 0.45 m/s, 48° | 33 W/m² | - |
| 1778021170 | 7.22° C | 92% | 1010.6 hPa | 0 mm | 0.89 m/s, 120° | 14 W/m² | - |
| 1778020868 | 7.22° C | 92% | 1010.3 hPa | 0 mm | 0 m/s | 19 W/m² | - |
| 1778020565 | 7.22° C | 92% | 1010.5 hPa | 1.27 mm | 0.89 m/s, 269° | 25 W/m² | - |
| 1778020261 | 7.22° C | 92% | 1010.2 hPa | 1.27 mm | 0 m/s | 76 W/m² | - |
* Rain latest hour (hover to see other rain measurements)
** Current wind speed in m/s (hover to see current wind gust speed)